Terug naar catalogus

ORBASTRO-TR2

ActiefWetenschapSSO
NORAD 59125·PAYLOAD·🇬🇧 United Kingdom
Deze satellietnaam is nog niet bevestigd door officiële bronnen.

Gelanceerd Mar 4, 2024 vanaf Vandenberg Space Force Base

Loading…

Volgende Passages (komende 24 uur)

TLE

VersSource: Space-Track

Epoch: Sep 14, 2026, 08:12 UTC

1 59125U 24043AD  26257.34175239  .00006589  00000-0  18291-3 0  9993
2 59125  97.5771  40.9139 0007466 275.2593  84.7799 15.37235321140957

Volg ORBASTRO-TR2 in realtime met AllMySat

Download on the App Store